This is the latest recevied weather packets stored in our database for station/object SP9KB-13. If no packets are shown the sender has not sent any weather packets the latest 10 day(s).
| Time | Temp. | Humidity | Pressure | Rain* | Wind** | Luminosity | Snow |
|---|---|---|---|---|---|---|---|
| 1778188688 | 11.67° C | 99% | 996 hPa | 1.78 mm | - | - | - |
| 1778188387 | 11.67° C | 99% | 996 hPa | 0 mm | - | - | - |
| 1778187786 | 11.67° C | 99% | 996 hPa | 0 mm | - | - | - |
| 1778187486 | 12.22° C | 99% | 995.8 hPa | 0 mm | - | - | - |
| 1778187185 | 12.22° C | 99% | 995.9 hPa | 0 mm | - | - | - |
| 1778186885 | 12.22° C | 99% | 995.8 hPa | 0 mm | - | - | - |
| 1778186584 | 12.22° C | 99% | 996 hPa | 0 mm | - | - | - |
| 1778186284 | 12.22° C | 99% | 995.8 hPa | 1.27 mm | - | - | - |
| 1778185983 | 12.22° C | 99% | 995.8 hPa | 1.27 mm | - | - | - |
| 1778185682 | 12.22° C | 99% | 995.8 hPa | 1.27 mm | - | - | - |
| 1778185382 | 12.22° C | 99% | 995.7 hPa | 0 mm | - | - | - |
| 1778185081 | 12.22° C | 99% | 995.2 hPa | 0 mm | - | - | - |
| 1778184781 | 12.22° C | 99% | 995.4 hPa | 0 mm | - | - | - |
| 1778184480 | 12.22° C | 99% | 995.4 hPa | 0 mm | - | - | - |
| 1778184180 | 12.22° C | 99% | 995.3 hPa | 0 mm | - | - | - |
| 1778183878 | 12.22° C | 99% | 995.2 hPa | 0 mm | - | - | - |
| 1778183578 | 12.22° C | 99% | 995.3 hPa | 1.78 mm | - | - | - |
| 1778183277 | 12.22° C | 99% | 995.2 hPa | 1.78 mm | - | - | - |
| 1778182977 | 12.22° C | 99% | 995.3 hPa | 0 mm | - | - | - |
| 1778182676 | 12.22° C | 99% | 995.3 hPa | 1.27 mm | - | - | - |
| 1778182375 | 12.22° C | 99% | 995.3 hPa | 1.27 mm | - | - | - |
| 1778182075 | 12.22° C | 99% | 995.5 hPa | 1.78 mm | - | - | - |
| 1778181774 | 12.22° C | 99% | 995.3 hPa | 1.78 mm | - | - | - |
| 1778181473 | 12.22° C | 99% | 995.5 hPa | 0 mm | - | - | - |
| 1778181173 | 12.22° C | 99% | 995.6 hPa | 3.05 mm | - | - | - |
* Rain latest hour (hover to see other rain measurements)
** Current wind speed in m/s (hover to see current wind gust speed)